Location: Beutels
(47.8767°N, 9.8584°E)
Time: 17:00:11
(UTC+00:00)

In-Cosmos 22 - Pass Details

Date: 19 May 2025
Orbit: 783 x 874 km, 81.2° (Epoch: 16 June)

Event Time Altitude Azimuth Distance (km) Brightness Sun altitude
Exits shadow 23:31:02 43° 154° (SSE) 1,201 4.6 -22.1°
Maximum altitude 23:32:44 62° 96° (E) 979 4.4 -22.0°
Drops below altitude 10° 23:38:25 10° 18° (NNE) 2,537 7.8 -22.0°
Sets 23:40:54 0° 15° (NNE) 3,480 8.9 -21.9°
